EDW267J LPMA-LSZH

Flight info

Callsign EDW267J
Flight time 3h 21m
Altitude 36000
Route DEGUN DCT VABEM DCT DEMOS DCT LOTEE DCT AZFIC DCT ERIGA UN741 NTS DCT PIWIZ DCT RESMI DCT TEPRI DCT POGZI DCT GELTA DCT MANAG DCT PEVIT DCT BLM
Aircraft A320/M-SDE2E3FGHIJ1RWXY/LB1

Departure

Time 2026-05-04 10:16
Airport Cristiano Ronaldo International Airport (LPMA)

Arrival

Time 2026-05-04 13:37
Airport Zürich Airport (LSZH)
Time Latitude Longitude Altitude Speed Heading
2026-05-04 09:18 32.69514 -16.77441 177 ft 0 kts 138°
2026-05-04 10:05 32.69523 -16.77451 176 ft 4 kts 140°
2026-05-04 10:06 32.69545 -16.77470 176 ft 4 kts 147°
2026-05-04 10:06 32.69568 -16.77485 176 ft 4 kts 167°
2026-05-04 10:06 32.69591 -16.77484 176 ft 3 kts 223°
2026-05-04 10:08 32.69593 -16.77482 176 ft 0 kts 226°
2026-05-04 10:10 32.69589 -16.77486 176 ft 4 kts 226°
2026-05-04 10:10 32.69564 -16.77518 176 ft 6 kts 226°
2026-05-04 10:10 32.69508 -16.77589 176 ft 17 kts 227°
2026-05-04 10:10 32.69429 -16.77688 176 ft 13 kts 226°
2026-05-04 10:11 32.69368 -16.77761 176 ft 11 kts 225°
2026-05-04 10:11 32.69316 -16.77825 176 ft 12 kts 226°
2026-05-04 10:11 32.69287 -16.77915 176 ft 11 kts 269°
2026-05-04 10:11 32.69284 -16.78016 176 ft 17 kts 255°
2026-05-04 10:12 32.69208 -16.78123 176 ft 18 kts 225°
2026-05-04 10:12 32.69116 -16.78232 176 ft 19 kts 225°
2026-05-04 10:12 32.69017 -16.78346 176 ft 18 kts 223°
2026-05-04 10:12 32.68915 -16.78406 176 ft 14 kts 196°
2026-05-04 10:13 32.68892 -16.78460 176 ft 7 kts 305°
2026-05-04 10:13 32.68923 -16.78457 176 ft 4 kts 40°
2026-05-04 10:13 32.68956 -16.78420 176 ft 20 kts 44°
2026-05-04 10:13 32.69243 -16.78083 176 ft 93 kts 45°
2026-05-04 10:14 32.69848 -16.77378 177 ft 149 kts 44°
2026-05-04 10:14 32.70613 -16.76447 633 ft 155 kts 53°
2026-05-04 10:16 32.68297 -16.65345 3533 ft 266 kts 111°
2026-05-04 10:16 32.67640 -16.63281 4381 ft 269 kts 111°
2026-05-04 10:16 32.66964 -16.61194 5203 ft 274 kts 111°
2026-05-04 10:16 32.66271 -16.59063 5964 ft 279 kts 111°
2026-05-04 10:17 32.65805 -16.56821 6719 ft 284 kts 92°
2026-05-04 10:17 32.66044 -16.54494 7432 ft 288 kts 72°
2026-05-04 10:19 32.76350 -16.41524 11047 ft 361 kts 42°
2026-05-04 10:19 32.78176 -16.39440 11629 ft 367 kts 43°
2026-05-04 10:19 32.80022 -16.37323 12259 ft 371 kts 42°
2026-05-04 10:19 32.81886 -16.35184 12886 ft 375 kts 42°
2026-05-04 10:20 32.83775 -16.33017 13496 ft 380 kts 42°
2026-05-04 10:20 32.85686 -16.30823 14076 ft 384 kts 42°
2026-05-04 10:20 32.87620 -16.28606 14663 ft 388 kts 42°
2026-05-04 10:20 32.89571 -16.26367 15302 ft 391 kts 41°
2026-05-04 10:21 32.91537 -16.24108 15860 ft 395 kts 41°
2026-05-04 10:21 32.93521 -16.21831 16394 ft 398 kts 41°
2026-05-04 10:21 32.95525 -16.19533 16923 ft 402 kts 41°
2026-05-04 10:21 32.97547 -16.17212 17440 ft 406 kts 41°
2026-05-04 10:22 33.01643 -16.12492 18467 ft 413 kts 41°
2026-05-04 10:22 33.03718 -16.10097 18917 ft 417 kts 41°
2026-05-04 10:22 33.05811 -16.07684 19369 ft 420 kts 41°
2026-05-04 10:23 33.07917 -16.05255 19822 ft 424 kts 41°
2026-05-04 10:23 33.10046 -16.02803 20279 ft 427 kts 41°
2026-05-04 10:25 33.25365 -15.85065 23233 ft 449 kts 41°
2026-05-04 10:25 33.27612 -15.82451 23618 ft 452 kts 41°
2026-05-04 10:25 33.29873 -15.79817 23967 ft 455 kts 41°
2026-05-04 10:25 33.32149 -15.77168 24281 ft 458 kts 41°
2026-05-04 10:26 33.34439 -15.74506 24592 ft 460 kts 41°
2026-05-04 10:26 33.36738 -15.71830 24889 ft 462 kts 41°
2026-05-04 10:26 33.39047 -15.69139 25191 ft 465 kts 41°
2026-05-04 10:26 33.41409 -15.66507 25494 ft 465 kts 36°
2026-05-04 10:27 33.44038 -15.64272 25789 ft 463 kts 27°
2026-05-04 10:27 33.46809 -15.62294 26106 ft 465 kts 27°
2026-05-04 10:27 33.49595 -15.60311 26409 ft 467 kts 26°
2026-05-04 10:27 33.52392 -15.58321 26682 ft 469 kts 26°
2026-05-04 10:28 33.55202 -15.56321 26959 ft 471 kts 26°
2026-05-04 10:28 33.58022 -15.54309 27225 ft 473 kts 26°
2026-05-04 10:28 33.60853 -15.52282 27476 ft 475 kts 26°
2026-05-04 10:28 33.63693 -15.50241 27731 ft 477 kts 26°
2026-05-04 10:29 33.66544 -15.48191 27993 ft 479 kts 26°
2026-05-04 10:29 33.69407 -15.46133 28249 ft 481 kts 26°
2026-05-04 10:29 33.72282 -15.44065 28499 ft 483 kts 26°
2026-05-04 10:29 33.75167 -15.41986 28723 ft 484 kts 26°
2026-05-04 10:30 33.78056 -15.39902 28962 ft 486 kts 26°
2026-05-04 10:30 33.80961 -15.37805 29172 ft 488 kts 25°
2026-05-04 10:30 33.83876 -15.35700 29381 ft 489 kts 25°
2026-05-04 10:30 33.86802 -15.33591 29571 ft 491 kts 25°
2026-05-04 10:31 33.89732 -15.31479 29833 ft 491 kts 25°
2026-05-04 10:31 33.92659 -15.29365 30127 ft 490 kts 25°
2026-05-04 10:32 34.10130 -15.16682 31609 ft 487 kts 25°
2026-05-04 10:33 34.13027 -15.14574 31860 ft 486 kts 25°
2026-05-04 10:33 34.15919 -15.12468 32108 ft 485 kts 25°
2026-05-04 10:33 34.18806 -15.10366 32358 ft 484 kts 25°
2026-05-04 10:33 34.21681 -15.08267 32611 ft 483 kts 25°
2026-05-04 10:34 34.24556 -15.06164 32851 ft 483 kts 25°
2026-05-04 10:34 34.27427 -15.04067 33097 ft 482 kts 25°
2026-05-04 10:34 34.30295 -15.01974 33343 ft 481 kts 25°
2026-05-04 10:34 34.33158 -14.99884 33627 ft 480 kts 24°
2026-05-04 10:35 34.35980 -14.97821 33860 ft 480 kts 24°
2026-05-04 10:35 34.38836 -14.95731 34087 ft 480 kts 24°
2026-05-04 10:35 34.44568 -14.91530 34186 ft 485 kts 24°
2026-05-04 10:36 34.50376 -14.87270 34189 ft 489 kts 24°
2026-05-04 10:36 34.56200 -14.82976 34193 ft 490 kts 25°
2026-05-04 10:37 34.62018 -14.78679 34191 ft 490 kts 24°
2026-05-04 10:37 34.67838 -14.74379 34198 ft 490 kts 24°
2026-05-04 10:39 34.88223 -14.59283 34234 ft 490 kts 24°
2026-05-04 10:40 34.94050 -14.54949 34238 ft 491 kts 24°
2026-05-04 10:40 34.99882 -14.50607 34230 ft 491 kts 24°
2026-05-04 10:41 35.05705 -14.46255 34223 ft 491 kts 24°
2026-05-04 10:41 35.11535 -14.41892 34219 ft 491 kts 24°
2026-05-04 10:42 35.17326 -14.37551 34221 ft 491 kts 24°
2026-05-04 10:42 35.23158 -14.33183 34220 ft 492 kts 24°
2026-05-04 10:43 35.28987 -14.28806 34219 ft 492 kts 24°
2026-05-04 10:45 35.52256 -14.11229 34237 ft 490 kts 25°
2026-05-04 10:45 35.57116 -14.07544 34236 ft 489 kts 25°
2026-05-04 10:46 35.62913 -14.03156 34229 ft 489 kts 25°
2026-05-04 10:46 35.68703 -13.98758 34256 ft 489 kts 24°
2026-05-04 10:47 35.74487 -13.94363 34244 ft 489 kts 24°
2026-05-04 10:47 35.80234 -13.89983 34257 ft 489 kts 24°
2026-05-04 10:49 36.03339 -13.72259 34502 ft 486 kts 25°
2026-05-04 10:50 36.09081 -13.67839 34549 ft 486 kts 25°
2026-05-04 10:51 36.29115 -13.52369 34728 ft 482 kts 26°
2026-05-04 10:52 36.31957 -13.50166 34760 ft 482 kts 26°
2026-05-04 10:52 36.37634 -13.45758 34820 ft 481 kts 26°
2026-05-04 10:54 36.57432 -13.30387 35009 ft 476 kts 24°
2026-05-04 10:54 36.60314 -13.28376 35024 ft 474 kts 22°
2026-05-04 10:56 36.80643 -13.14886 35225 ft 471 kts 23°
2026-05-04 10:56 36.83471 -13.12941 35257 ft 471 kts 23°
2026-05-04 10:57 36.89218 -13.08993 35308 ft 472 kts 23°
2026-05-04 10:57 36.94972 -13.05064 35359 ft 472 kts 23°
2026-05-04 10:58 37.00736 -13.01137 35432 ft 471 kts 23°
2026-05-04 10:58 37.06469 -12.97217 35483 ft 469 kts 23°
2026-05-04 10:59 37.12192 -12.93304 35533 ft 468 kts 23°
2026-05-04 10:59 37.17908 -12.89376 35582 ft 469 kts 23°
2026-05-04 11:00 37.23619 -12.85423 35642 ft 469 kts 23°
2026-05-04 11:01 37.43565 -12.71640 35846 ft 468 kts 23°
2026-05-04 11:02 37.46417 -12.69659 35868 ft 468 kts 23°
2026-05-04 11:05 37.89053 -12.39871 36202 ft 468 kts 23°
2026-05-04 11:06 37.94718 -12.35891 36198 ft 469 kts 23°
2026-05-04 11:06 38.00422 -12.31855 36202 ft 470 kts 23°
2026-05-04 11:10 38.40194 -12.03607 36201 ft 468 kts 24°
2026-05-04 11:12 38.62957 -11.87277 36182 ft 469 kts 23°
2026-05-04 11:12 38.68650 -11.83184 36182 ft 469 kts 23°
2026-05-04 11:13 38.74341 -11.79081 36182 ft 469 kts 24°
2026-05-04 11:13 38.80023 -11.74966 36172 ft 469 kts 24°
2026-05-04 11:14 38.80941 -11.74298 36178 ft 469 kts 24°
2026-05-04 11:16 39.08358 -11.54340 36175 ft 468 kts 24°
2026-05-04 11:16 39.13984 -11.50218 36170 ft 468 kts 24°
2026-05-04 11:17 39.19650 -11.46073 36171 ft 468 kts 24°
2026-05-04 11:19 39.42287 -11.29420 36163 ft 469 kts 24°
2026-05-04 11:19 39.47963 -11.25225 36165 ft 470 kts 24°
2026-05-04 11:20 39.53636 -11.21013 36163 ft 470 kts 24°
2026-05-04 11:20 39.59307 -11.16800 36163 ft 470 kts 24°
2026-05-04 11:22 39.81948 -10.99890 36161 ft 469 kts 24°
2026-05-04 11:23 39.87604 -10.95661 36155 ft 469 kts 24°
2026-05-04 11:25 40.07469 -10.80719 36156 ft 472 kts 24°
2026-05-04 11:25 40.13144 -10.76414 36155 ft 471 kts 24°
2026-05-04 11:27 40.38667 -10.57002 36163 ft 472 kts 24°
2026-05-04 11:28 40.44358 -10.52653 36154 ft 474 kts 25°
2026-05-04 11:28 40.50024 -10.48323 36144 ft 474 kts 25°
2026-05-04 11:29 40.55729 -10.43947 36144 ft 475 kts 25°
2026-05-04 11:29 40.61424 -10.39562 36141 ft 475 kts 25°
2026-05-04 11:33 41.00440 -10.09333 36128 ft 478 kts 25°
2026-05-04 11:33 41.06169 -10.04859 36138 ft 478 kts 25°
2026-05-04 11:34 41.11901 -10.00380 36122 ft 478 kts 25°
2026-05-04 11:34 41.17633 -9.95887 36130 ft 479 kts 25°
2026-05-04 11:35 41.23360 -9.91372 36131 ft 479 kts 25°
2026-05-04 11:35 41.29090 -9.86854 36131 ft 479 kts 25°
2026-05-04 11:36 41.34820 -9.82335 36133 ft 480 kts 25°
2026-05-04 11:36 41.40570 -9.77790 36127 ft 481 kts 26°
2026-05-04 11:37 41.46366 -9.73203 36124 ft 481 kts 26°
2026-05-04 11:37 41.52075 -9.68667 36124 ft 481 kts 26°
2026-05-04 11:38 41.57826 -9.64086 36121 ft 481 kts 26°
2026-05-04 11:38 41.63576 -9.59494 36110 ft 481 kts 26°
2026-05-04 11:39 41.69324 -9.54891 36112 ft 481 kts 26°
2026-05-04 11:41 41.89441 -9.38749 36113 ft 482 kts 26°
2026-05-04 11:41 41.94888 -9.33425 36113 ft 489 kts 38°
2026-05-04 11:42 41.99938 -9.27281 36111 ft 489 kts 38°
2026-05-04 11:42 42.04996 -9.21146 36114 ft 489 kts 38°
2026-05-04 11:43 42.10042 -9.15002 36110 ft 489 kts 38°
2026-05-04 11:43 42.15085 -9.08850 36103 ft 489 kts 38°
2026-05-04 11:44 42.20128 -9.02684 36093 ft 490 kts 39°
2026-05-04 11:44 42.25177 -8.96486 36091 ft 491 kts 39°
2026-05-04 11:45 42.30221 -8.90285 36081 ft 490 kts 39°
2026-05-04 11:45 42.35254 -8.84083 36084 ft 489 kts 39°
2026-05-04 11:46 42.40283 -8.77874 36082 ft 489 kts 39°
2026-05-04 11:46 42.45309 -8.71652 36079 ft 489 kts 39°
2026-05-04 11:47 42.50306 -8.65463 36079 ft 490 kts 39°
2026-05-04 11:47 42.55328 -8.59220 36075 ft 490 kts 39°
2026-05-04 11:48 42.60349 -8.52957 36076 ft 490 kts 39°
2026-05-04 11:48 42.65369 -8.46691 36077 ft 490 kts 39°
2026-05-04 11:49 42.70386 -8.40411 36075 ft 490 kts 39°
2026-05-04 11:49 42.75393 -8.34130 36071 ft 489 kts 40°
2026-05-04 11:50 42.80387 -8.27847 36069 ft 489 kts 40°
2026-05-04 11:50 42.85380 -8.21552 36070 ft 489 kts 40°
2026-05-04 11:51 42.90367 -8.15254 36078 ft 489 kts 40°
2026-05-04 11:51 42.95358 -8.08937 36080 ft 489 kts 40°
2026-05-04 11:52 43.00340 -8.02610 36071 ft 489 kts 40°
2026-05-04 11:52 43.05321 -7.96282 36067 ft 489 kts 40°
2026-05-04 11:53 43.10296 -7.89947 36065 ft 489 kts 40°
2026-05-04 11:53 43.15261 -7.83600 36062 ft 489 kts 40°
2026-05-04 11:55 43.35066 -7.58127 36049 ft 488 kts 41°
2026-05-04 11:56 43.40006 -7.51740 36056 ft 488 kts 41°
2026-05-04 11:56 43.44950 -7.45349 36051 ft 488 kts 41°
2026-05-04 11:57 43.49885 -7.38942 36049 ft 487 kts 41°
2026-05-04 11:57 43.54816 -7.32522 36046 ft 488 kts 41°
2026-05-04 11:58 43.59742 -7.26084 36045 ft 488 kts 41°
2026-05-04 11:58 43.64655 -7.19643 36043 ft 487 kts 42°
2026-05-04 11:59 43.69535 -7.13237 36043 ft 487 kts 42°
2026-05-04 11:59 43.74477 -7.06748 36044 ft 487 kts 42°
2026-05-04 12:00 43.79356 -7.00329 36044 ft 487 kts 42°
2026-05-04 12:00 43.84263 -6.93851 36044 ft 487 kts 42°
2026-05-04 12:01 43.89157 -6.87366 36042 ft 486 kts 42°
2026-05-04 12:02 44.06268 -6.64585 36030 ft 486 kts 43°
2026-05-04 12:03 44.11142 -6.58072 36046 ft 486 kts 43°
2026-05-04 12:03 44.16014 -6.51533 36035 ft 486 kts 43°
2026-05-04 12:04 44.20883 -6.44987 36028 ft 487 kts 43°
2026-05-04 12:04 44.25753 -6.38420 36036 ft 487 kts 44°
2026-05-04 12:05 44.30539 -6.31738 36023 ft 487 kts 46°
2026-05-04 12:05 44.35113 -6.24766 36034 ft 487 kts 48°
2026-05-04 12:06 44.39624 -6.17712 36025 ft 486 kts 48°
2026-05-04 12:06 44.44167 -6.10707 36032 ft 487 kts 47°
2026-05-04 12:07 44.48749 -6.03730 36025 ft 487 kts 47°
2026-05-04 12:07 44.53334 -5.96747 36027 ft 487 kts 47°
2026-05-04 12:08 44.57905 -5.89740 36028 ft 487 kts 47°
2026-05-04 12:08 44.62460 -5.82707 36027 ft 487 kts 47°
2026-05-04 12:09 44.67013 -5.75667 36030 ft 487 kts 47°
2026-05-04 12:09 44.71567 -5.68624 36023 ft 487 kts 48°
2026-05-04 12:10 44.76126 -5.61563 36028 ft 488 kts 48°
2026-05-04 12:10 44.80676 -5.54489 36026 ft 488 kts 48°
2026-05-04 12:11 44.85229 -5.47400 36026 ft 488 kts 48°
2026-05-04 12:11 44.89767 -5.40298 36027 ft 487 kts 48°
2026-05-04 12:12 44.94290 -5.33191 36016 ft 487 kts 49°
2026-05-04 12:12 44.98822 -5.26070 36025 ft 488 kts 49°
2026-05-04 12:14 45.16873 -4.97552 36013 ft 487 kts 49°
2026-05-04 12:15 45.21382 -4.90372 36019 ft 488 kts 49°
2026-05-04 12:15 45.25884 -4.83172 36018 ft 488 kts 49°
2026-05-04 12:16 45.30381 -4.75963 36017 ft 487 kts 49°
2026-05-04 12:16 45.34877 -4.68760 36016 ft 487 kts 49°
2026-05-04 12:17 45.39376 -4.61555 36016 ft 487 kts 49°
2026-05-04 12:17 45.43860 -4.54342 36016 ft 487 kts 49°
2026-05-04 12:18 45.48337 -4.47104 36016 ft 487 kts 49°
2026-05-04 12:18 45.52049 -4.41077 36016 ft 486 kts 50°
2026-05-04 12:19 45.56509 -4.33834 36013 ft 486 kts 50°
2026-05-04 12:19 45.60965 -4.26586 36013 ft 486 kts 50°
2026-05-04 12:20 45.65410 -4.19333 36011 ft 486 kts 50°
2026-05-04 12:20 45.69851 -4.12053 36011 ft 486 kts 50°
2026-05-04 12:21 45.74286 -4.04771 36013 ft 485 kts 50°
2026-05-04 12:21 45.78711 -3.97483 36013 ft 485 kts 50°
2026-05-04 12:22 45.83134 -3.90189 36006 ft 485 kts 50°
2026-05-04 12:22 45.87560 -3.82882 36008 ft 485 kts 50°
2026-05-04 12:23 45.91976 -3.75562 36010 ft 484 kts 50°
2026-05-04 12:23 45.96366 -3.68259 36008 ft 483 kts 50°
2026-05-04 12:24 46.00749 -3.60941 36008 ft 483 kts 50°
2026-05-04 12:24 46.05127 -3.53614 36006 ft 483 kts 50°
2026-05-04 12:25 46.09513 -3.46264 36003 ft 484 kts 50°
2026-05-04 12:25 46.13888 -3.38905 36003 ft 482 kts 50°
2026-05-04 12:26 46.18246 -3.31565 36002 ft 481 kts 50°
2026-05-04 12:26 46.22599 -3.24222 36006 ft 481 kts 51°
2026-05-04 12:27 46.26931 -3.16862 36003 ft 481 kts 51°
2026-05-04 12:27 46.31267 -3.09487 36005 ft 481 kts 51°
2026-05-04 12:28 46.35603 -3.02110 36001 ft 481 kts 51°
2026-05-04 12:28 46.39938 -2.94731 36002 ft 481 kts 51°
2026-05-04 12:29 46.44261 -2.87335 35999 ft 481 kts 51°
2026-05-04 12:29 46.48573 -2.79920 35986 ft 481 kts 52°
2026-05-04 12:30 46.52894 -2.72481 35998 ft 482 kts 52°
2026-05-04 12:30 46.57215 -2.65017 35996 ft 483 kts 52°
2026-05-04 12:31 46.61504 -2.57598 35994 ft 483 kts 52°
2026-05-04 12:31 46.65823 -2.50114 35994 ft 483 kts 52°
2026-05-04 12:32 46.72285 -2.38849 35994 ft 484 kts 52°
2026-05-04 12:33 46.76596 -2.31289 35992 ft 485 kts 52°
2026-05-04 12:33 46.80913 -2.23723 35990 ft 485 kts 52°
2026-05-04 12:34 46.85233 -2.16155 35986 ft 485 kts 52°
2026-05-04 12:34 46.89540 -2.08576 35980 ft 485 kts 52°
2026-05-04 12:35 46.93842 -2.00974 35984 ft 484 kts 52°
2026-05-04 12:35 46.98129 -1.93369 35978 ft 484 kts 52°
2026-05-04 12:36 47.02410 -1.85762 35981 ft 484 kts 52°
2026-05-04 12:36 47.06688 -1.78144 35978 ft 484 kts 52°
2026-05-04 12:37 47.10958 -1.70510 36002 ft 484 kts 53°
2026-05-04 12:37 47.15218 -1.62875 35961 ft 483 kts 54°
2026-05-04 12:38 47.18832 -1.54595 35975 ft 482 kts 62°
2026-05-04 12:38 47.22149 -1.46050 35969 ft 478 kts 71°
2026-05-04 12:39 47.23881 -1.36693 35973 ft 474 kts 80°
2026-05-04 12:39 47.25421 -1.27257 35975 ft 474 kts 80°
2026-05-04 12:40 47.26952 -1.17804 35977 ft 476 kts 80°
2026-05-04 12:40 47.28459 -1.08385 35972 ft 476 kts 80°
2026-05-04 12:41 47.29972 -0.98908 35967 ft 476 kts 80°
2026-05-04 12:41 47.31488 -0.89418 35966 ft 476 kts 80°
2026-05-04 12:42 47.32991 -0.79920 35964 ft 477 kts 80°
2026-05-04 12:42 47.34492 -0.70379 35973 ft 478 kts 80°
2026-05-04 12:43 47.35990 -0.60820 35971 ft 478 kts 80°
2026-05-04 12:43 47.37475 -0.51259 35973 ft 478 kts 80°
2026-05-04 12:44 47.38953 -0.41706 35976 ft 478 kts 80°
2026-05-04 12:44 47.40425 -0.32153 35973 ft 477 kts 81°
2026-05-04 12:45 47.41885 -0.22595 35971 ft 477 kts 81°
2026-05-04 12:45 47.43337 -0.13032 35972 ft 477 kts 81°
2026-05-04 12:46 47.44769 -0.03461 35973 ft 477 kts 81°
2026-05-04 12:46 47.46205 0.06104 35965 ft 476 kts 81°
2026-05-04 12:47 47.47633 0.15656 35967 ft 476 kts 81°
2026-05-04 12:47 47.49043 0.25211 35959 ft 476 kts 81°
2026-05-04 12:48 47.50443 0.34762 35960 ft 476 kts 81°
2026-05-04 12:48 47.51844 0.44327 35943 ft 476 kts 81°
2026-05-04 12:49 47.53245 0.53917 35940 ft 477 kts 81°
2026-05-04 12:49 47.54639 0.63522 35947 ft 477 kts 81°
2026-05-04 12:50 47.56014 0.73134 35950 ft 477 kts 81°
2026-05-04 12:50 47.57378 0.82686 35943 ft 477 kts 81°
2026-05-04 12:51 47.58741 0.92304 35942 ft 478 kts 81°
2026-05-04 12:51 47.60100 1.02005 35933 ft 477 kts 81°
2026-05-04 12:52 47.61443 1.11572 35934 ft 477 kts 81°
2026-05-04 12:52 47.62784 1.21212 35938 ft 477 kts 82°
2026-05-04 12:53 47.64116 1.30856 35938 ft 478 kts 82°
2026-05-04 12:53 47.65438 1.40513 35939 ft 478 kts 82°
2026-05-04 12:54 47.66759 1.50175 35939 ft 478 kts 82°
2026-05-04 12:54 47.68071 1.59843 35945 ft 478 kts 82°
2026-05-04 12:55 47.69368 1.69506 35925 ft 478 kts 82°
2026-05-04 12:55 47.70662 1.79184 35945 ft 478 kts 82°
2026-05-04 12:56 47.71952 1.88866 35947 ft 478 kts 82°
2026-05-04 12:56 47.73231 1.98555 35949 ft 478 kts 83°
2026-05-04 12:57 47.74492 2.08254 35955 ft 478 kts 83°
2026-05-04 12:57 47.75747 2.17958 35951 ft 478 kts 83°
2026-05-04 12:58 47.77001 2.27666 35956 ft 478 kts 83°
2026-05-04 12:58 47.78239 2.37367 35960 ft 477 kts 83°
2026-05-04 12:59 47.79474 2.47054 35962 ft 476 kts 83°
2026-05-04 12:59 47.80704 2.56738 35965 ft 477 kts 83°
2026-05-04 13:00 47.81925 2.66440 35968 ft 477 kts 83°
2026-05-04 13:00 47.83138 2.76154 35970 ft 477 kts 83°
2026-05-04 13:01 47.84335 2.85874 35968 ft 477 kts 84°
2026-05-04 13:01 47.85521 2.95595 35963 ft 477 kts 84°
2026-05-04 13:02 47.86696 3.05264 35963 ft 478 kts 84°
2026-05-04 13:02 47.87894 3.15071 35964 ft 478 kts 84°
2026-05-04 13:03 47.89055 3.24744 35965 ft 478 kts 84°
2026-05-04 13:03 47.90209 3.34498 35963 ft 478 kts 84°
2026-05-04 13:04 47.91363 3.44258 35965 ft 479 kts 84°
2026-05-04 13:04 47.92517 3.54043 35973 ft 479 kts 84°
2026-05-04 13:05 47.93659 3.63825 35967 ft 478 kts 84°
2026-05-04 13:05 47.94604 3.72006 35963 ft 478 kts 84°
2026-05-04 13:06 47.95720 3.81718 35973 ft 478 kts 84°
2026-05-04 13:06 47.96839 3.91501 35970 ft 478 kts 84°
2026-05-04 13:07 47.97942 4.01286 35969 ft 478 kts 84°
2026-05-04 13:07 47.99043 4.11077 35969 ft 478 kts 84°
2026-05-04 13:08 48.00135 4.20878 35973 ft 479 kts 85°
2026-05-04 13:08 48.01212 4.30695 35958 ft 479 kts 85°
2026-05-04 13:09 48.02280 4.40517 35972 ft 480 kts 85°
2026-05-04 13:09 48.03346 4.50356 35979 ft 480 kts 85°
2026-05-04 13:10 48.04405 4.60195 35987 ft 479 kts 85°
2026-05-04 13:10 48.05468 4.70035 35962 ft 480 kts 85°
2026-05-04 13:11 48.06506 4.79885 35974 ft 480 kts 85°
2026-05-04 13:11 48.07019 4.84817 35831 ft 482 kts 85°
2026-05-04 13:11 48.07525 4.89756 35513 ft 478 kts 86°
2026-05-04 13:11 48.08010 4.94647 35859 ft 472 kts 86°
2026-05-04 13:12 48.08502 4.99509 35938 ft 474 kts 85°
2026-05-04 13:12 48.09528 5.09305 35978 ft 479 kts 86°
2026-05-04 13:13 48.09609 5.19130 35961 ft 468 kts 103°
2026-05-04 13:13 48.08036 5.28480 35979 ft 463 kts 111°
2026-05-04 13:14 48.06255 5.37738 35990 ft 464 kts 111°
2026-05-04 13:14 48.04486 5.47012 35999 ft 464 kts 111°
2026-05-04 13:15 48.02719 5.56224 35771 ft 466 kts 111°
2026-05-04 13:15 48.01820 5.60867 35260 ft 464 kts 111°
2026-05-04 13:15 48.00920 5.65490 34776 ft 463 kts 111°
2026-05-04 13:15 48.00019 5.70097 34288 ft 462 kts 111°
2026-05-04 13:16 47.99120 5.74681 33793 ft 461 kts 112°
2026-05-04 13:16 47.98218 5.79269 33253 ft 461 kts 112°
2026-05-04 13:16 47.97317 5.83859 32713 ft 461 kts 112°
2026-05-04 13:16 47.96413 5.88456 32185 ft 462 kts 112°
2026-05-04 13:17 47.95506 5.93062 31669 ft 463 kts 112°
2026-05-04 13:17 47.94594 5.97682 31145 ft 466 kts 112°
2026-05-04 13:17 47.93674 6.02325 30648 ft 468 kts 112°
2026-05-04 13:17 47.92748 6.06982 30157 ft 469 kts 112°
2026-05-04 13:18 47.91819 6.11653 29599 ft 471 kts 112°
2026-05-04 13:18 47.90885 6.16334 29037 ft 472 kts 112°
2026-05-04 13:18 47.89947 6.21025 28496 ft 473 kts 112°
2026-05-04 13:18 47.89003 6.25727 27947 ft 474 kts 112°
2026-05-04 13:19 47.88055 6.30430 27415 ft 473 kts 111°
2026-05-04 13:19 47.87114 6.35109 26879 ft 470 kts 111°
2026-05-04 13:19 47.86179 6.39752 26377 ft 468 kts 111°
2026-05-04 13:19 47.85246 6.44378 25872 ft 465 kts 111°
2026-05-04 13:20 47.84318 6.48973 25381 ft 462 kts 111°
2026-05-04 13:20 47.83393 6.53533 24910 ft 459 kts 111°
2026-05-04 13:20 47.82471 6.58061 24423 ft 456 kts 111°
2026-05-04 13:20 47.81551 6.62553 23948 ft 452 kts 111°
2026-05-04 13:21 47.80637 6.67004 23466 ft 449 kts 111°
2026-05-04 13:21 47.79726 6.71428 22926 ft 447 kts 110°
2026-05-04 13:21 47.78817 6.75836 22369 ft 445 kts 110°
2026-05-04 13:21 47.77912 6.80226 21842 ft 443 kts 110°
2026-05-04 13:22 47.77010 6.84590 21324 ft 440 kts 110°
2026-05-04 13:22 47.76114 6.88928 20818 ft 437 kts 110°
2026-05-04 13:22 47.75222 6.93230 20314 ft 434 kts 110°
2026-05-04 13:22 47.74335 6.97499 19817 ft 431 kts 110°
2026-05-04 13:23 47.73453 7.01727 19346 ft 428 kts 110°
2026-05-04 13:23 47.72574 7.05936 18866 ft 425 kts 110°
2026-05-04 13:23 47.71699 7.10117 18392 ft 423 kts 110°
2026-05-04 13:23 47.70827 7.14270 18040 ft 420 kts 110°
2026-05-04 13:24 47.69954 7.18404 17992 ft 420 kts 110°
2026-05-04 13:24 47.69078 7.22545 18006 ft 421 kts 110°
2026-05-04 13:24 47.68204 7.26692 17860 ft 422 kts 110°
2026-05-04 13:25 47.66468 7.34920 16805 ft 415 kts 110°
2026-05-04 13:25 47.65608 7.38983 16292 ft 411 kts 110°
2026-05-04 13:25 47.64752 7.43015 15785 ft 409 kts 110°
2026-05-04 13:25 47.63900 7.47020 15288 ft 406 kts 110°
2026-05-04 13:26 47.63052 7.50993 14798 ft 400 kts 110°
2026-05-04 13:26 47.62217 7.54749 14344 ft 378 kts 111°
2026-05-04 13:26 47.61384 7.58394 13839 ft 360 kts 111°
2026-05-04 13:26 47.60587 7.61832 13319 ft 346 kts 111°
2026-05-04 13:27 47.59823 7.65135 12782 ft 332 kts 111°
2026-05-04 13:27 47.59087 7.68319 12273 ft 321 kts 111°
2026-05-04 13:27 47.58377 7.71403 11767 ft 312 kts 111°
2026-05-04 13:27 47.57691 7.74395 11265 ft 302 kts 111°
2026-05-04 13:28 47.57061 7.77328 10774 ft 297 kts 104°
2026-05-04 13:28 47.57019 7.80331 10311 ft 297 kts 86°
2026-05-04 13:28 47.57299 7.83355 9918 ft 296 kts 84°
2026-05-04 13:28 47.57614 7.86370 9549 ft 295 kts 83°
2026-05-04 13:29 47.57934 7.89400 9195 ft 293 kts 83°
2026-05-04 13:29 47.58238 7.92323 8860 ft 291 kts 83°
2026-05-04 13:29 47.58544 7.95311 8523 ft 289 kts 83°
2026-05-04 13:29 47.58837 7.98211 8239 ft 287 kts 83°
2026-05-04 13:30 47.59132 8.01168 7977 ft 285 kts 83°
2026-05-04 13:30 47.59420 8.04067 7728 ft 284 kts 83°
2026-05-04 13:30 47.59705 8.06962 7475 ft 283 kts 84°
2026-05-04 13:30 47.59984 8.09831 7240 ft 281 kts 84°
2026-05-04 13:31 47.60258 8.12697 7038 ft 281 kts 83°
2026-05-04 13:31 47.60532 8.15562 6845 ft 281 kts 83°
2026-05-04 13:31 47.60804 8.18418 6659 ft 279 kts 83°
2026-05-04 13:31 47.60961 8.21276 6343 ft 277 kts 91°
2026-05-04 13:32 47.60920 8.24098 5994 ft 268 kts 93°
2026-05-04 13:32 47.60855 8.26732 5686 ft 251 kts 94°
2026-05-04 13:32 47.60780 8.29242 5393 ft 239 kts 93°
2026-05-04 13:32 47.60695 8.31674 5105 ft 235 kts 93°
2026-05-04 13:33 47.60604 8.34072 4810 ft 231 kts 94°
2026-05-04 13:33 47.60270 8.36373 4609 ft 230 kts 113°
2026-05-04 13:33 47.59364 8.38321 4354 ft 230 kts 135°
2026-05-04 13:33 47.58221 8.39891 4063 ft 219 kts 136°
2026-05-04 13:34 47.57125 8.41391 3782 ft 211 kts 137°
2026-05-04 13:34 47.56073 8.42834 3544 ft 201 kts 136°
2026-05-04 13:34 47.55064 8.44218 3272 ft 193 kts 137°
2026-05-04 13:34 47.54115 8.45520 3018 ft 178 kts 137°
2026-05-04 13:35 47.53258 8.46695 2800 ft 160 kts 137°
2026-05-04 13:35 47.51682 8.48852 2394 ft 151 kts 137°
2026-05-04 13:35 47.50917 8.49901 2184 ft 150 kts 136°
2026-05-04 13:36 47.50147 8.50954 1983 ft 152 kts 136°
2026-05-04 13:36 47.49372 8.52014 1772 ft 149 kts 135°
2026-05-04 13:36 47.48635 8.53035 1555 ft 142 kts 136°
2026-05-04 13:36 47.47913 8.54011 1408 ft 138 kts 136°
2026-05-04 13:37 47.47308 8.54840 1384 ft 95 kts 137°
2026-05-04 13:37 47.46901 8.55396 1389 ft 60 kts 137°
2026-05-04 13:37 47.46730 8.55600 1398 ft 27 kts 152°
2026-05-04 13:37 47.46627 8.55663 1395 ft 23 kts 162°
2026-05-04 13:38 47.46432 8.55733 1397 ft 19 kts 167°
2026-05-04 13:38 47.46330 8.55831 1407 ft 19 kts 135°
2026-05-04 13:38 47.46221 8.55980 1409 ft 20 kts 139°
2026-05-04 13:38 47.46127 8.55994 1407 ft 16 kts 187°
2026-05-04 13:39 47.45988 8.55972 1406 ft 22 kts 189°
2026-05-04 13:39 47.45864 8.55914 1414 ft 15 kts 202°
2026-05-04 13:39 47.45768 8.55876 1409 ft 14 kts 188°
2026-05-04 13:39 47.45677 8.55862 1408 ft 12 kts 186°
2026-05-04 13:40 47.45615 8.55852 1410 ft 7 kts 186°
2026-05-04 13:40 47.45560 8.55843 1408 ft 11 kts 186°
2026-05-04 13:40 47.45504 8.55799 1412 ft 9 kts 255°
2026-05-04 13:40 47.45515 8.55661 1407 ft 11 kts 277°
2026-05-04 13:41 47.45492 8.55575 1410 ft 9 kts 188°
2026-05-04 13:41 47.45451 8.55571 1407 ft 3 kts 186°
2026-05-04 13:41 47.45446 8.55570 1407 ft 0 kts 186°
2026-05-04 13:42 47.45439 8.55569 1407 ft 0 kts 186°